Hourly Data Report for October 13, 2016

All times are specified in Local Standard Time (LST). Add 1 hour to adjust for Daylight Saving Time where and when it is observed.

TORONTO INTL A
ONTARIO

43°40'36.000" N
79°37'50.000" W
173.40 m
6158731
71624
YYZ

Download Data

Hourly Data (October 2016)
Hourly Data Report for October 13, 2016
Temp Definition
°C
Dew Point Temp Definition
°C
Rel Hum Definition
%
Wind Dir Definition
10's deg

Wind Spd Definition
km/h
Visibility Definition
km
Stn Press Definition
kPa
Hmdx Definition


Wind Chill Definition


Weather Definition


TIME
00:00 Legend Double Dagger 20.0 10.5 54 20 33 24.1 99.00     LegendNANA
01:00 Legend Double Dagger 19.9 10.7 55 22 25 24.1 98.96     Cloudy
02:00 Legend Double Dagger 17.4 14.7 84 22 32 24.1 98.92     Rain
03:00 Legend Double Dagger 15.5 11.9 79 29 28 24.1 99.02     LegendNANA
04:00 Legend Double Dagger 14.2 10.5 78 29 30 24.1 99.12     Mostly Cloudy
05:00 Legend Double Dagger 13.4 9.5 77 30 25 24.1 99.23     LegendNANA
06:00 Legend Double Dagger 12.6 9.1 79 31 25 24.1 99.32     LegendNANA
07:00 Legend Double Dagger 11.7 7.6 76 31 32 24.1 99.46     Mostly Cloudy
08:00 Legend Double Dagger 11.6 6.4 70 32 26 24.1 99.58     LegendNANA
09:00 Legend Double Dagger 12.2 4.7 60 30 40 24.1 99.68     LegendNANA
10:00 Legend Double Dagger 12.6 4.4 57 31 33 24.1 99.78     Mostly Cloudy
11:00 Legend Double Dagger 12.8 3.8 54 31 31 24.1 99.91     LegendNANA
12:00 Legend Double Dagger 12.6 2.5 50 30 28 24.1 99.97     LegendNANA
13:00 Legend Double Dagger 12.9 1.9 47 31 28 24.1 100.02     Mostly Cloudy
14:00 Legend Double Dagger 13.6 1.3 43 30 27 24.1 100.07     LegendNANA
15:00 Legend Double Dagger 13.3 1.1 43 33 17 24.1 100.12     LegendNANA
16:00 Legend Double Dagger 12.8 0.3 42 32 21 24.1 100.21     Mostly Cloudy
17:00 Legend Double Dagger 12.1 -0.1 43 28 14 24.1 100.28     LegendNANA
18:00 Legend Double Dagger 10.1 1.5 55 35 11 24.1 100.33     LegendNANA
19:00 Legend Double Dagger 9.0 1.5 59 36 19 24.1 100.38     Clear
20:00 Legend Double Dagger 8.6 1.1 59 35 12 24.1 100.46     LegendNANA
21:00 Legend Double Dagger 7.9 0.9 61 31 13 24.1 100.53     LegendNANA
22:00 Legend Double Dagger 7.4 0.4 61 31 8 24.1 100.56     Clear
23:00 Legend Double Dagger 6.5 0.2 64 33 9 24.1 100.61     LegendNANA

Notes on Data Quality.

Legend

  • E = Estimated
  • M = Missing
  • NA = Not Available
  • ‡ = Partner data that is not subject to review by the National Climate Archives
Date modified: